World > North America > United States > Rhode Island   City of Providence, RI

Providence, Rhode Island Regional Weather

Lat: 41.82N, Lon: 71.42W
Wx Zone: RIZ002Web Search

Pass this page to a friend. Tell them to point their camera at the QR Code near the bottom of this page.

Feedback
Providence Weather Map
UTC Time: 2/26/2021, 04:37
Your Time:

Providence, RI Regional Weather

Expires:202102260500;;127789
ASUS41 KGYX 260410
RWRGYX
WEATHER ROUNDUP FOR MAINE AND NEW HAMPSHIRE
NATIONAL WEATHER SERVICE GRAY ME
1100 PM EST THU FEB 25 2021


MAZ007-012-024-CTZ003-RIZ002-NYZ038-NYZ072-260500-
SOUTHERN NEW ENGLAND AND NY
  
CITY           SKY/WX    TMP DP  RH WIND       PRES   REMARKS
BOSTON         CLEAR     34  14  43 W12       30.19R                  
WORCESTER      CLEAR     30   9  41 W9        30.15R                  
NANTUCKET      CLEAR     36  20  52 NW16      30.19R                  
PROVIDENCE     CLEAR     35  12  38 NW10G20   30.21R                  
HARTFORD       CLEAR     32  14  47 N6        30.24R                  
ALBANY         CLEAR     28  15  58 NW6       30.26R                  
NEW YORK CITY  PTCLDY    42  16  34 NW8       30.25R                  
$$


SKY/WX - Weather  TMP - Temperature  DP - Dew Point  RH - Relative Humidity
WIND - Wind Direction/Speed PRES - Barometric Pressure VSB - Visibility
WCI - Wind Chill Index E13G22 Wind - East Wind 13 mph/Gusts of 22 mph